ACA131 CYHZ-CYYT

Flight info

Callsign ACA131
Flight time 1h 15m
Altitude 37000
Route IGTAS DCT NOTOP DCT SILRO DCT TIGOR TIGOR4
Aircraft A20N/M-SDE2E3FGHIRWXY/LB1

Departure

Time 2026-05-04 22:59
Airport Halifax / Stanfield International Airport (CYHZ)

Arrival

Time 2026-05-05 00:14
Airport St. John's International Airport (CYYT)
Time Latitude Longitude Altitude Speed Heading
2026-05-04 22:38 44.88509 -63.51336 454 ft 0 kts 261°
2026-05-04 22:43 44.88510 -63.51334 454 ft 2 kts 261°
2026-05-04 22:44 44.88513 -63.51307 454 ft 2 kts 261°
2026-05-04 22:44 44.88515 -63.51287 454 ft 2 kts 261°
2026-05-04 22:44 44.88516 -63.51272 454 ft 2 kts 276°
2026-05-04 22:44 44.88513 -63.51252 454 ft 1 kts 298°
2026-05-04 22:45 44.88513 -63.51251 453 ft 0 kts 299°
2026-05-04 22:45 44.88507 -63.51238 451 ft 0 kts 314°
2026-05-04 22:52 44.88509 -63.51240 452 ft 1 kts 321°
2026-05-04 22:52 44.88545 -63.51256 454 ft 12 kts 347°
2026-05-04 22:53 44.88645 -63.51283 453 ft 17 kts 355°
2026-05-04 22:53 44.88774 -63.51300 451 ft 16 kts 351°
2026-05-04 22:53 44.88874 -63.51323 450 ft 0 kts 350°
2026-05-04 22:53 44.88876 -63.51323 450 ft 0 kts 350°
2026-05-04 22:54 44.88892 -63.51327 450 ft 7 kts 350°
2026-05-04 22:54 44.88952 -63.51330 449 ft 10 kts 10°
2026-05-04 22:54 44.88955 -63.51329 449 ft 0 kts 13°
2026-05-04 22:54 44.88956 -63.51329 449 ft 2 kts 13°
2026-05-04 22:55 44.89048 -63.51252 449 ft 23 kts 33°
2026-05-04 22:55 44.89018 -63.51053 449 ft 29 kts 131°
2026-05-04 22:55 44.88925 -63.50855 452 ft 20 kts 117°
2026-05-04 22:55 44.88978 -63.50684 451 ft 24 kts 33°
2026-05-04 22:56 44.89008 -63.50617 453 ft 0 kts 97°
2026-05-04 22:57 44.89007 -63.50609 453 ft 6 kts 99°
2026-05-04 22:57 44.88943 -63.50451 453 ft 23 kts 131°
2026-05-04 22:58 44.88822 -63.50496 455 ft 19 kts 216°
2026-05-04 22:58 44.88679 -63.50640 455 ft 44 kts 215°
2026-05-04 22:58 44.88250 -63.51058 453 ft 105 kts 214°
2026-05-04 22:58 44.87515 -63.51749 521 ft 143 kts 214°
2026-05-04 22:59 44.86643 -63.52519 1074 ft 155 kts 217°
2026-05-04 22:59 44.85636 -63.53377 1559 ft 182 kts 213°
2026-05-04 22:59 44.84383 -63.54353 1884 ft 228 kts 211°
2026-05-04 22:59 44.82882 -63.55497 2456 ft 266 kts 208°
2026-05-04 23:00 44.81137 -63.56830 2811 ft 301 kts 207°
2026-05-04 23:00 44.79169 -63.58026 3534 ft 313 kts 192°
2026-05-04 23:00 44.77006 -63.58364 4396 ft 314 kts 171°
2026-05-04 23:00 44.74908 -63.57788 5288 ft 311 kts 155°
2026-05-04 23:01 44.72991 -63.56446 6224 ft 308 kts 141°
2026-05-04 23:01 44.71349 -63.54515 7134 ft 308 kts 131°
2026-05-04 23:01 44.69977 -63.52206 8063 ft 309 kts 123°
2026-05-04 23:01 44.68932 -63.49585 9028 ft 308 kts 105°
2026-05-04 23:02 44.68801 -63.46644 10259 ft 300 kts 82°
2026-05-04 23:02 44.69512 -63.43858 11039 ft 315 kts 62°
2026-05-04 23:02 44.71028 -63.41477 11413 ft 340 kts 39°
2026-05-04 23:02 44.73172 -63.40028 12053 ft 356 kts 18°
2026-05-04 23:03 44.75592 -63.39136 12820 ft 362 kts 20°
2026-05-04 23:03 44.77915 -63.37771 13564 ft 363 kts 32°
2026-05-04 23:03 44.80030 -63.35798 14219 ft 366 kts 42°
2026-05-04 23:03 44.81954 -63.33430 14887 ft 369 kts 48°
2026-05-04 23:04 44.83770 -63.30855 15586 ft 372 kts 50°
2026-05-04 23:04 44.85552 -63.28184 16269 ft 376 kts 51°
2026-05-04 23:04 44.87346 -63.25455 16919 ft 382 kts 51°
2026-05-04 23:04 44.89164 -63.22697 17619 ft 386 kts 51°
2026-05-04 23:05 44.90980 -63.19951 18258 ft 390 kts 51°
2026-05-04 23:05 44.92840 -63.17142 18860 ft 393 kts 51°
2026-05-04 23:05 44.94720 -63.14307 19449 ft 397 kts 51°
2026-05-04 23:05 44.96616 -63.11448 20066 ft 400 kts 51°
2026-05-04 23:06 44.98526 -63.08568 20650 ft 404 kts 51°
2026-05-04 23:06 45.00453 -63.05660 21233 ft 407 kts 51°
2026-05-04 23:06 45.02394 -63.02724 21792 ft 411 kts 51°
2026-05-04 23:06 45.04354 -62.99757 22383 ft 414 kts 51°
2026-05-04 23:07 45.06320 -62.96760 22953 ft 417 kts 53°
2026-05-04 23:07 45.08090 -62.93529 23480 ft 416 kts 61°
2026-05-04 23:07 45.09560 -62.90064 23868 ft 418 kts 65°
2026-05-04 23:07 45.11012 -62.86471 24297 ft 422 kts 65°
2026-05-04 23:08 45.12487 -62.82852 24723 ft 426 kts 65°
2026-05-04 23:08 45.13976 -62.79204 25128 ft 430 kts 65°
2026-05-04 23:08 45.15334 -62.75423 25498 ft 431 kts 71°
2026-05-04 23:08 45.16544 -62.71517 25908 ft 435 kts 71°
2026-05-04 23:09 45.17756 -62.67580 26314 ft 438 kts 71°
2026-05-04 23:09 45.18983 -62.63602 26691 ft 442 kts 71°
2026-05-04 23:09 45.20224 -62.59586 27034 ft 447 kts 71°
2026-05-04 23:09 45.21460 -62.55591 27409 ft 450 kts 71°
2026-05-04 23:10 45.22723 -62.51515 27769 ft 453 kts 71°
2026-05-04 23:10 45.23995 -62.47402 28116 ft 457 kts 71°
2026-05-04 23:10 45.25274 -62.43257 28425 ft 461 kts 71°
2026-05-04 23:10 45.26564 -62.39077 28768 ft 464 kts 71°
2026-05-04 23:11 45.27861 -62.34863 29072 ft 467 kts 71°
2026-05-04 23:11 45.29163 -62.30624 29406 ft 470 kts 71°
2026-05-04 23:11 45.30473 -62.26348 29670 ft 474 kts 71°
2026-05-04 23:11 45.31791 -62.22037 29971 ft 477 kts 72°
2026-05-04 23:12 45.33115 -62.17695 30230 ft 480 kts 72°
2026-05-04 23:12 45.34427 -62.13385 30473 ft 484 kts 72°
2026-05-04 23:12 45.35766 -62.08977 30694 ft 488 kts 72°
2026-05-04 23:12 45.37112 -62.04540 30993 ft 489 kts 72°
2026-05-04 23:13 45.38459 -62.00094 31315 ft 490 kts 72°
2026-05-04 23:13 45.39809 -61.95630 31657 ft 491 kts 72°
2026-05-04 23:13 45.41158 -61.91158 31966 ft 492 kts 72°
2026-05-04 23:13 45.42507 -61.86679 32278 ft 493 kts 72°
2026-05-04 23:14 45.43858 -61.82185 32602 ft 494 kts 72°
2026-05-04 23:14 45.45209 -61.77685 32922 ft 495 kts 72°
2026-05-04 23:14 45.46560 -61.73176 33192 ft 496 kts 72°
2026-05-04 23:14 45.47913 -61.68650 33494 ft 496 kts 72°
2026-05-04 23:15 45.49245 -61.64186 33782 ft 497 kts 72°
2026-05-04 23:15 45.50596 -61.59654 34047 ft 497 kts 72°
2026-05-04 23:15 45.51944 -61.55118 34279 ft 497 kts 72°
2026-05-04 23:15 45.53292 -61.50577 34524 ft 497 kts 72°
2026-05-04 23:16 45.54636 -61.46040 34708 ft 497 kts 72°
2026-05-04 23:16 45.55979 -61.41498 34869 ft 496 kts 72°
2026-05-04 23:16 45.57320 -61.36953 35022 ft 498 kts 72°
2026-05-04 23:16 45.58661 -61.32403 35203 ft 498 kts 72°
2026-05-04 23:17 45.60003 -61.27839 35403 ft 498 kts 72°
2026-05-04 23:17 45.61324 -61.23340 35617 ft 498 kts 72°
2026-05-04 23:17 45.62663 -61.18770 35826 ft 499 kts 72°
2026-05-04 23:17 45.63999 -61.14203 36040 ft 499 kts 72°
2026-05-04 23:18 45.65335 -61.09627 36243 ft 499 kts 72°
2026-05-04 23:18 45.66671 -61.05045 36440 ft 499 kts 72°
2026-05-04 23:18 45.68004 -61.00462 36624 ft 500 kts 72°
2026-05-04 23:18 45.69339 -60.95863 36714 ft 500 kts 72°
2026-05-04 23:19 45.71997 -60.86687 36714 ft 499 kts 72°
2026-05-04 23:19 45.74647 -60.77503 36706 ft 499 kts 72°
2026-05-04 23:20 45.77273 -60.68368 36713 ft 499 kts 72°
2026-05-04 23:20 45.79910 -60.59157 36703 ft 500 kts 72°
2026-05-04 23:21 45.82541 -60.49938 36711 ft 500 kts 72°
2026-05-04 23:21 45.85167 -60.40699 36701 ft 500 kts 72°
2026-05-04 23:22 45.87768 -60.31512 36705 ft 501 kts 72°
2026-05-04 23:22 45.90384 -60.22239 36697 ft 501 kts 72°
2026-05-04 23:23 45.92993 -60.12955 36700 ft 502 kts 72°
2026-05-04 23:23 45.95600 -60.03641 36693 ft 502 kts 72°
2026-05-04 23:24 45.98200 -59.94318 36701 ft 503 kts 73°
2026-05-04 23:24 46.00780 -59.85034 36694 ft 503 kts 73°
2026-05-04 23:25 46.03366 -59.75688 36704 ft 503 kts 73°
2026-05-04 23:25 46.05948 -59.66322 36708 ft 503 kts 73°
2026-05-04 23:26 46.08528 -59.56921 37006 ft 505 kts 73°
2026-05-04 23:26 46.09816 -59.52216 37193 ft 505 kts 73°
2026-05-04 23:26 46.11102 -59.47510 37382 ft 505 kts 73°
2026-05-04 23:27 46.12387 -59.42800 37563 ft 505 kts 73°
2026-05-04 23:27 46.13652 -59.38153 37767 ft 505 kts 72°
2026-05-04 23:27 46.14931 -59.33445 37995 ft 503 kts 72°
2026-05-04 23:27 46.16201 -59.28764 38320 ft 499 kts 72°
2026-05-04 23:28 46.17458 -59.24120 38556 ft 496 kts 72°
2026-05-04 23:28 46.18714 -59.19467 38599 ft 499 kts 72°
2026-05-04 23:28 46.21235 -59.10097 38690 ft 503 kts 72°
2026-05-04 23:29 46.23760 -59.00682 38751 ft 501 kts 72°
2026-05-04 23:29 46.26252 -58.91357 38746 ft 501 kts 73°
2026-05-04 23:30 46.28752 -58.81962 38751 ft 501 kts 73°
2026-05-04 23:30 46.31242 -58.72564 38741 ft 500 kts 73°
2026-05-04 23:31 46.33724 -58.63158 38749 ft 500 kts 73°
2026-05-04 23:31 46.36199 -58.53744 38738 ft 500 kts 73°
2026-05-04 23:32 46.38467 -58.44313 38738 ft 498 kts 77°
2026-05-04 23:32 46.40565 -58.34746 38731 ft 499 kts 76°
2026-05-04 23:33 46.42704 -58.25169 38733 ft 500 kts 76°
2026-05-04 23:33 46.44860 -58.15585 38728 ft 500 kts 76°
2026-05-04 23:34 46.46996 -58.06044 38733 ft 501 kts 76°
2026-05-04 23:34 46.49137 -57.96418 38724 ft 502 kts 76°
2026-05-04 23:35 46.51275 -57.86763 38735 ft 503 kts 76°
2026-05-04 23:35 46.53408 -57.77084 38727 ft 504 kts 76°
2026-05-04 23:36 46.55537 -57.67377 38736 ft 505 kts 76°
2026-05-04 23:36 46.56581 -57.62577 38898 ft 506 kts 74°
2026-05-04 23:36 46.57638 -57.57692 38740 ft 506 kts 74°
2026-05-04 23:37 46.59757 -57.47934 38729 ft 507 kts 74°
2026-05-04 23:37 46.61877 -57.38147 38728 ft 507 kts 74°
2026-05-04 23:38 46.63974 -57.28419 38731 ft 508 kts 74°
2026-05-04 23:38 46.66078 -57.18607 38724 ft 508 kts 74°
2026-05-04 23:39 46.68174 -57.08786 38728 ft 508 kts 74°
2026-05-04 23:39 46.70262 -56.98951 38730 ft 508 kts 74°
2026-05-04 23:40 46.72342 -56.89107 38727 ft 508 kts 74°
2026-05-04 23:40 46.74401 -56.79317 38724 ft 509 kts 75°
2026-05-04 23:41 46.76465 -56.69452 38724 ft 509 kts 75°
2026-05-04 23:41 46.78523 -56.59573 38722 ft 509 kts 75°
2026-05-04 23:42 46.80570 -56.49694 38546 ft 510 kts 75°
2026-05-04 23:42 46.81593 -56.44736 38346 ft 510 kts 75°
2026-05-04 23:42 46.82616 -56.39771 38122 ft 511 kts 75°
2026-05-04 23:43 46.83634 -56.34812 37857 ft 509 kts 75°
2026-05-04 23:43 46.84634 -56.29935 37598 ft 509 kts 75°
2026-05-04 23:43 46.85647 -56.24977 37336 ft 509 kts 75°
2026-05-04 23:43 46.86658 -56.20015 37084 ft 510 kts 75°
2026-05-04 23:44 46.87667 -56.15052 36834 ft 510 kts 75°
2026-05-04 23:44 46.88676 -56.10077 36589 ft 510 kts 75°
2026-05-04 23:44 46.89682 -56.05108 36340 ft 510 kts 75°
2026-05-04 23:44 46.90688 -56.00122 36100 ft 511 kts 75°
2026-05-04 23:45 46.91692 -55.95137 35861 ft 511 kts 75°
2026-05-04 23:45 46.92680 -55.90215 35625 ft 512 kts 75°
2026-05-04 23:45 46.93677 -55.85237 35369 ft 510 kts 75°
2026-05-04 23:45 46.94674 -55.80247 34937 ft 509 kts 75°
2026-05-04 23:46 46.95664 -55.75278 34329 ft 509 kts 75°
2026-05-04 23:46 46.96651 -55.70310 33769 ft 508 kts 75°
2026-05-04 23:46 46.97637 -55.65335 33392 ft 509 kts 75°
2026-05-04 23:46 46.98629 -55.60318 33130 ft 517 kts 75°
2026-05-04 23:47 46.99627 -55.55258 32863 ft 516 kts 75°
2026-05-04 23:47 47.00603 -55.50302 32602 ft 511 kts 75°
2026-05-04 23:47 47.01584 -55.45304 32342 ft 510 kts 75°
2026-05-04 23:47 47.02562 -55.40308 32082 ft 510 kts 75°
2026-05-04 23:48 47.03539 -55.35300 31825 ft 511 kts 75°
2026-05-04 23:48 47.04513 -55.30296 31570 ft 510 kts 75°
2026-05-04 23:48 47.05483 -55.25307 31322 ft 509 kts 75°
2026-05-04 23:48 47.06450 -55.20315 31073 ft 509 kts 75°
2026-05-04 23:49 47.07414 -55.15320 30835 ft 509 kts 75°
2026-05-04 23:49 47.08363 -55.10394 30596 ft 508 kts 75°
2026-05-04 23:49 47.09319 -55.05419 30359 ft 506 kts 76°
2026-05-04 23:49 47.10269 -55.00464 30126 ft 503 kts 76°
2026-05-04 23:50 47.11212 -54.95535 29847 ft 500 kts 76°
2026-05-04 23:50 47.12149 -54.90624 29260 ft 498 kts 76°
2026-05-04 23:50 47.13076 -54.85746 28711 ft 493 kts 76°
2026-05-04 23:50 47.13989 -54.80932 28177 ft 486 kts 75°
2026-05-04 23:51 47.14888 -54.76183 27639 ft 480 kts 75°
2026-05-04 23:51 47.15774 -54.71486 27114 ft 474 kts 75°
2026-05-04 23:51 47.16636 -54.66908 26586 ft 469 kts 75°
2026-05-04 23:51 47.17500 -54.62309 26031 ft 465 kts 75°
2026-05-04 23:52 47.18353 -54.57750 25494 ft 461 kts 75°
2026-05-04 23:52 47.19200 -54.53219 24950 ft 457 kts 75°
2026-05-04 23:52 47.20037 -54.48729 24410 ft 454 kts 75°
2026-05-04 23:52 47.20868 -54.44259 23870 ft 451 kts 75°
2026-05-04 23:53 47.21691 -54.39821 23330 ft 449 kts 75°
2026-05-04 23:53 47.22509 -54.35406 22743 ft 445 kts 75°
2026-05-04 23:53 47.23317 -54.31029 22212 ft 441 kts 75°
2026-05-04 23:53 47.24113 -54.26707 21680 ft 436 kts 75°
2026-05-04 23:54 47.24892 -54.22473 21165 ft 432 kts 75°
2026-05-04 23:54 47.25671 -54.18221 20634 ft 428 kts 75°
2026-05-04 23:54 47.26443 -54.14001 20110 ft 425 kts 75°
2026-05-04 23:54 47.27207 -54.09814 19588 ft 422 kts 75°
2026-05-04 23:55 47.27963 -54.05658 19073 ft 419 kts 75°
2026-05-04 23:55 47.28716 -54.01515 18554 ft 417 kts 75°
2026-05-04 23:55 47.30204 -53.93298 17485 ft 413 kts 75°
2026-05-04 23:56 47.30940 -53.89220 17159 ft 417 kts 75°
2026-05-04 23:56 47.31684 -53.85092 16971 ft 424 kts 75°
2026-05-04 23:56 47.32436 -53.80909 16783 ft 420 kts 75°
2026-05-04 23:56 47.33179 -53.76760 16339 ft 418 kts 75°
2026-05-04 23:57 47.33918 -53.72631 15772 ft 416 kts 75°
2026-05-04 23:57 47.34652 -53.68519 15219 ft 414 kts 75°
2026-05-04 23:57 47.35379 -53.64431 14680 ft 411 kts 75°
2026-05-04 23:57 47.36100 -53.60375 14156 ft 409 kts 75°
2026-05-04 23:58 47.36819 -53.56315 13609 ft 407 kts 75°
2026-05-04 23:58 47.37531 -53.52289 13054 ft 404 kts 75°
2026-05-04 23:58 47.38229 -53.48340 12520 ft 401 kts 75°
2026-05-04 23:58 47.38929 -53.44363 11953 ft 399 kts 75°
2026-05-04 23:59 47.39624 -53.40408 11400 ft 398 kts 76°
2026-05-04 23:59 47.40315 -53.36470 10882 ft 395 kts 76°
2026-05-04 23:59 47.41001 -53.32555 10450 ft 390 kts 76°
2026-05-04 23:59 47.41666 -53.28747 10288 ft 377 kts 76°
2026-05-05 00:00 47.42308 -53.25057 10147 ft 364 kts 76°
2026-05-05 00:00 47.42511 -53.23889 10108 ft 360 kts 76°
2026-05-05 00:00 47.43529 -53.18034 9713 ft 346 kts 76°
2026-05-05 00:00 47.44117 -53.14635 9556 ft 335 kts 76°
2026-05-05 00:01 47.44674 -53.11402 9430 ft 324 kts 76°
2026-05-05 00:01 47.45221 -53.08232 9311 ft 313 kts 76°
2026-05-05 00:01 47.45748 -53.05170 9156 ft 303 kts 76°
2026-05-05 00:01 47.46263 -53.02167 8875 ft 300 kts 76°
2026-05-05 00:02 47.46775 -52.99182 8544 ft 299 kts 76°
2026-05-05 00:02 47.47283 -52.96212 8209 ft 297 kts 76°
2026-05-05 00:02 47.47790 -52.93251 7892 ft 296 kts 76°
2026-05-05 00:02 47.48293 -52.90309 7562 ft 295 kts 76°
2026-05-05 00:03 47.48786 -52.87412 7263 ft 294 kts 76°
2026-05-05 00:03 47.49282 -52.84490 6979 ft 293 kts 76°
2026-05-05 00:03 47.49775 -52.81585 6716 ft 290 kts 76°
2026-05-05 00:03 47.50264 -52.78706 6406 ft 289 kts 76°
2026-05-05 00:04 47.50752 -52.75822 6112 ft 288 kts 76°
2026-05-05 00:04 47.51237 -52.72958 5840 ft 286 kts 76°
2026-05-05 00:04 47.51719 -52.70101 5495 ft 287 kts 76°
2026-05-05 00:04 47.52201 -52.67242 5167 ft 287 kts 76°
2026-05-05 00:05 47.52682 -52.64376 4866 ft 287 kts 76°
2026-05-05 00:05 47.53152 -52.61562 4736 ft 277 kts 76°
2026-05-05 00:05 47.53601 -52.58882 4628 ft 267 kts 76°
2026-05-05 00:05 47.54040 -52.56254 4472 ft 260 kts 76°
2026-05-05 00:06 47.54474 -52.53657 4196 ft 260 kts 76°
2026-05-05 00:06 47.54914 -52.51070 3904 ft 259 kts 72°
2026-05-05 00:06 47.55784 -52.48850 3758 ft 237 kts 35°
2026-05-05 00:06 47.57074 -52.47754 3629 ft 194 kts 353°
2026-05-05 00:07 47.58262 -52.47756 3532 ft 154 kts 327°
2026-05-05 00:07 47.59246 -52.48106 3378 ft 141 kts 321°
2026-05-05 00:07 47.60191 -52.48477 3135 ft 142 kts 322°
2026-05-05 00:07 47.61157 -52.48766 2975 ft 140 kts 327°
2026-05-05 00:08 47.62118 -52.48951 3012 ft 139 kts 324°
2026-05-05 00:08 47.62895 -52.49468 2968 ft 112 kts 298°
2026-05-05 00:08 47.63340 -52.50324 2920 ft 100 kts 278°
2026-05-05 00:08 47.63508 -52.51293 2880 ft 96 kts 266°
2026-05-05 00:09 47.63526 -52.52271 2831 ft 94 kts 261°
2026-05-05 00:09 47.63490 -52.53241 2792 ft 94 kts 259°
2026-05-05 00:09 47.63446 -52.54197 2745 ft 94 kts 259°
2026-05-05 00:09 47.63401 -52.55165 2698 ft 94 kts 259°
2026-05-05 00:10 47.63355 -52.56133 2655 ft 94 kts 259°
2026-05-05 00:10 47.63309 -52.57102 2596 ft 95 kts 259°
2026-05-05 00:10 47.63264 -52.58074 2497 ft 94 kts 259°
2026-05-05 00:10 47.63218 -52.59044 2385 ft 95 kts 259°
2026-05-05 00:11 47.63171 -52.60027 2265 ft 96 kts 259°
2026-05-05 00:11 47.63125 -52.61013 2142 ft 96 kts 258°
2026-05-05 00:11 47.63077 -52.62015 2054 ft 99 kts 258°
2026-05-05 00:11 47.63030 -52.63023 1924 ft 99 kts 258°
2026-05-05 00:12 47.62982 -52.64048 1784 ft 100 kts 257°
2026-05-05 00:12 47.62932 -52.65087 1646 ft 101 kts 257°
2026-05-05 00:12 47.62883 -52.66131 1499 ft 103 kts 257°
2026-05-05 00:12 47.62833 -52.67199 1320 ft 108 kts 258°
2026-05-05 00:13 47.62779 -52.68298 1216 ft 108 kts 259°
2026-05-05 00:13 47.62734 -52.69412 1085 ft 109 kts 259°
2026-05-05 00:13 47.62688 -52.70515 919 ft 106 kts 259°
2026-05-05 00:13 47.62637 -52.71571 785 ft 102 kts 259°
2026-05-05 00:14 47.62579 -52.72641 664 ft 107 kts 262°
2026-05-05 00:14 47.62531 -52.73768 515 ft 109 kts 262°
2026-05-05 00:14 47.62473 -52.74836 452 ft 88 kts 264°
2026-05-05 00:14 47.62445 -52.75285 451 ft 0 kts 264°
2026-05-05 00:15 47.62437 -52.75464 452 ft 34 kts 266°
2026-05-05 00:15 47.62418 -52.75849 457 ft 40 kts 264°
2026-05-05 00:15 47.62396 -52.76352 462 ft 61 kts 267°
2026-05-05 00:15 47.62369 -52.76865 463 ft 31 kts 264°
2026-05-05 00:16 47.62341 -52.77033 464 ft 10 kts 245°
2026-05-05 00:16 47.62334 -52.77052 462 ft 5 kts 247°
2026-05-05 00:16 47.62327 -52.77079 464 ft 0 kts 253°
2026-05-05 00:16 47.62382 -52.77109 464 ft 17 kts 51°
2026-05-05 00:17 47.62383 -52.76819 459 ft 45 kts 86°
2026-05-05 00:17 47.62401 -52.76317 462 ft 51 kts 85°
2026-05-05 00:17 47.62431 -52.75768 457 ft 55 kts 84°
2026-05-05 00:17 47.62452 -52.75400 451 ft 0 kts 84°
2026-05-05 00:18 47.62454 -52.75375 451 ft 14 kts 84°
2026-05-05 00:18 47.62465 -52.75024 451 ft 40 kts 108°
2026-05-05 00:18 47.62270 -52.74785 452 ft 37 kts 137°
2026-05-05 00:18 47.62055 -52.74554 450 ft 38 kts 140°
2026-05-05 00:19 47.61938 -52.74588 450 ft 6 kts 262°
2026-05-05 00:19 47.61879 -52.74642 450 ft 12 kts 145°
2026-05-05 00:19 47.61876 -52.74637 450 ft 0 kts 132°
2026-05-05 00:20 47.61859 -52.74591 450 ft 16 kts 120°
2026-05-05 00:20 47.61772 -52.74470 449 ft 17 kts 137°
2026-05-05 00:20 47.61706 -52.74382 449 ft 0 kts 138°